SCP
0 0 0 0 0 0 0 0 0 0 0 0 0 0 0 0 0 0 0 0 0 0 0 0 0 0 0 0 0 -0 -0 0 0 0 0 0 0 0 0 0 0 0 0 0
0 0 0 0 0 -0 -0 0 0 0 0 0 0 0 0 0 0 0 0 0 0 0 0 0 0 0 0 0 -0 -0 -0 0 0 0 0 0 0 0 0 0 0 0 0 0
0 0 0 0 -0 -0 -0 0 0 0 0 0 0 0 0 0 0 0 0 0 0 0 0 0 0 0 0 0 -0 -0 0 0 0 0 0 0 0 0 0 0 0 0 0 0
0 0 0 0 -0 -0 -0 0 0 0 0 0 0 0 0 0 0 0 0 0 0 0 0 0 0 0 0 0 -0 -0 0 0 0 0 0 0 0 0 0 0 0 0 0 0
0 0 0 0 0 0 0 0 0 0 0 0 0 0 0 0 0 0 0 0 0 -0 0 0 0 0 0 0 -0 0 0 0 0 0 0 0 0 0 0 0 0 0 0 0
0 0 0 0 0 0 0 0 0 0 0 0 0 0 0 0 0 0 0 0 0 0 0 0 0 0 0 0 0 0 0 0 0 0 0 0 0 0 0 0 0 0 0 0
0 0 0 0 0 0 0 0 0 0 0 0 0 0 0 0 0 0 0 0 0 0 0 0 0 0 0 0 0 0 0 0 0 0 0 0 0 0 0 0 0 0 0 0
0 0 0 0 0 0 0 0 0 0 0 0 0 0 0 0 0 0 0 0 0 0 0 0 0 0 0 0 0 0 0 0 0 0 0 0 0 0 0 0 0 0 0 0
0 0 0 0 0 0 0 0 0 0 0 0 0 0 0 0 0 0 0 0 0 0 0 0 0 0 0 0 0 0 0 0 0 0 0 0 0 0 0 0 0 0 0 0
0 0 0 0 0 0 0 0 0 0 0 0 0 0 0 0 0 0 0 0 0 0 0 0 0 0 0 0 0 0 0 0 0 0 0 0 0 0 0 0 0 0 0 0
0 0 0 0 0 0 0 0 0 0 0 0 0 0 0 0 0 0 0 -0 0 0 0 0 0 0 0 0 0 0 0 0 0 0 0 0 0 0 0 0 0 0 0 0
0 0 0 0 0 0 0 0 0 0 0 0 0 0 0 0 0 0 -0 -0 0 0 0 0 0 0 0 0 0 0 0 0 0 0 0 0 0 0 0 0 0 0 0 0
0 0 0 0 0 0 0 0 0 0 0 0 0 0 0 0 0 0 0 0 0 0 0 0 0 0 0 0 0 0 0 0 0 0 0 0 0 0 0 0 0 0 0 0
0 0 0 0 0 0 0 0 0 0 0 0 0 0 0 0 0 0 0 0 0 0 0 0 0 0 0 0 0 0 0 0 0 0 0 0 0 0 0 0 0 0 0 0
0 0 0 0 0 0 0 0 0 0 0 0 0 0 0 0 0 0 0 0 0 0 0 0 0 0 0 0 0 0 0 0 0 0 0 0 0 0 0 0 0 0 0 0
0 0 0 0 0 0 0 0 0 0 0 0 0 0 0 0 0 0 0 0 0 0 0 0 0 0 0 0 0 0 0 0 0 0 0 0 0 0 0 0 0 0 0 0
0 0 0 0 0 0 0 0 0 0 0 0 0 0 0 0 0 0 0 0 0 0 0 0 0 0 0 0 0 0 0 0 0 0 0 0 0 0 0 0 0 0 0 0
0 0 0 0 0 0 0 0 0 0 0 0 0 0 0 0 0 0 0 0 0 0 0 0 0 0 0 0 0 0 0 0 0 0 0 0 0 0 0 0 0 0 0 0
0 0 0 -0 -0 -0 0 0 0 0 0 0 0 0 0 0 0 0 0 0 0 0 -0 0 0 0 0 0 0 0 0 0 0 0 0 0 0 0 0 0 0 0 0 0
0 0 0 0 0 0 0 0 0 0 0 0 0 0 0 0 0 0 0 0 0 0 0 0 0 0 0 0 0 0 0 0 0 0 0 0 0 0 0 0 0 0 0 0
0 0 0 0 0 0 0 0 0 0 0 0 0 0 0 0 0 0 0 0 0 0 0 0 0 0 0 0 0 0 0 0 0 0 0 0 0 0 0 0 0 0 0 0
0 0 0 0 0 0 0 0 0 -0 -0 -0 0 0 0 0 0 0 0 0 0 0 0 0 0 0 0 0 0 0 -0 -0 0 0 0 0 0 0 0 0 0 0 0 0
0 0 0 0 0 0 0 0 0 -0 -0 -0 -0 0 0 0 0 0 0 0 0 0 0 0 0 0 0 0 0 0 -0 -0 0 0 0 0 0 0 0 0 0 0 0 0
0 0 0 0 0 0 0 0 0 -0 -0 -0 -0 0 0 0 0 0 0 0 0 0 0 0 0 0 0 0 0 0 0 0 0 0 0 0 0 0 0 0 0 0 0 0
0 0 0 0 0 0 0 0 0 -0 -0 -0 0 0 0 0 0 0 0 0 0 0 0 0 0 0 0 0 0 0 0 0 0 0 0 0 0 0 0 0 0 0 0 0
0 0 0 0 0 0 0 0 0 -0 -0 -0 -0 0 0 0 0 0 0 0 0 0 0 0 0 0 0 0 0 0 0 0 0 0 0 0 0 0 0 0 0 0 0 0
0 0 0 0 0 0 0 0 0 -0 -0 -0 -0 -0 0 0 0 0 0 0 0 0 0 0 0 0 0 0 0 0 0 0 0 0 0 0 0 0 0 0 0 0 0 0
Wind_Speed
6 5 4 7 8 8 9 9 9 9 10 11 7 6 6 4 3 3 2 2 2 2 2 2 2 2 1 1 1 0 1 1 2 2 1 2 2 2 2 2 3 3 3 3
4 4 5 8 11 11 11 9 10 10 13 8 5 4 4 4 4 4 4 3 3 3 3 3 3 2 1 1 1 0 1 1 1 1 1 2 2 2 2 2 2 2 3 3
4 3 4 9 9 10 7 8 8 12 12 4 4 5 5 5 4 5 5 4 4 3 4 3 3 2 2 1 1 0 1 1 1 1 2 2 2 2 2 3 2 2 3 3
2 2 8 8 2 6 7 7 8 7 6 5 6 5 4 4 4 4 4 4 4 3 3 3 2 2 1 1 1 1 1 2 2 1 2 2 2 2 2 2 2 2 3 3
2 4 9 8 3 4 5 7 6 8 8 5 2 2 3 3 3 4 4 4 4 3 3 3 2 1 0 1 1 1 2 2 2 2 2 2 2 3 3 2 2 3 3 3
3 4 8 7 2 2 2 6 5 6 6 3 1 1 4 2 1 2 3 2 2 2 2 2 2 1 1 1 1 2 2 3 2 2 2 3 3 3 2 2 3 3 3 3
5 6 10 7 2 3 3 7 3 4 4 4 4 5 3 2 2 2 3 3 2 2 2 2 1 1 1 1 2 3 2 2 2 2 2 2 2 2 2 2 2 3 3 3
6 6 11 3 5 7 7 3 2 2 3 4 4 4 3 2 2 2 2 2 1 1 2 2 1 1 1 2 3 2 2 2 2 2 2 2 2 2 2 2 2 3 3 4
10 9 4 5 6 5 2 3 3 3 3 3 3 3 3 2 2 2 2 2 1 1 1 2 1 1 2 3 2 2 2 2 2 2 2 2 2 2 2 2 2 2 3 3
5 8 5 5 5 4 3 4 4 3 3 3 3 3 3 3 3 2 2 2 1 1 1 2 2 2 2 2 1 1 2 2 2 2 2 2 2 2 2 2 2 2 3 3
6 6 4 5 6 6 4 3 2 2 2 3 3 3 3 3 3 3 2 2 1 1 2 3 2 2 2 2 1 1 2 2 2 2 2 2 2 2 3 3 4 3 3 3
8 7 6 5 4 4 4 4 4 2 2 2 3 3 3 3 3 2 2 2 1 2 2 3 2 3 2 2 1 1 2 2 2 1 1 2 2 3 3 4 5 6 6 5
6 4 4 4 3 3 3 3 3 3 3 3 2 2 3 3 2 2 2 2 2 3 3 3 3 3 3 2 1 2 2 2 2 1 2 2 2 2 3 3 4 4 4 5
3 2 3 4 4 3 2 2 1 1 2 2 2 2 2 2 2 2 3 3 2 2 3 3 3 4 3 2 2 2 2 3 2 2 2 2 2 2 2 2 3 3 4 4
4 4 5 3 2 1 1 1 1 1 1 1 1 2 2 3 3 3 3 2 2 2 3 3 3 4 3 2 2 2 2 2 2 1 2 2 1 1 1 2 2 2 3 3
2 1 2 2 3 2 1 2 2 2 2 2 2 2 3 3 3 3 2 2 2 3 4 3 4 4 2 2 2 2 2 3 2 1 1 1 1 1 1 1 2 2 2 2
2 2 3 3 4 3 3 3 3 3 3 3 3 2 2 1 2 3 3 3 3 4 4 4 5 4 2 2 2 2 2 2 2 1 1 1 1 1 1 1 1 2 2 2
5 6 5 5 4 4 3 3 3 3 3 3 2 2 2 3 4 4 4 3 2 3 4 4 4 3 2 2 2 2 2 1 1 1 1 1 1 1 1 1 2 2 2 3
4 4 4 4 3 3 3 3 3 3 2 2 2 3 3 4 4 4 3 3 3 4 4 3 4 2 2 3 2 2 2 2 1 1 1 2 1 1 1 1 2 2 2 2
2 2 2 2 2 2 2 2 2 2 2 2 2 3 3 4 3 3 3 4 4 4 4 3 3 2 2 3 3 1 2 2 1 1 1 1 1 1 1 1 2 2 2 2
2 2 2 2 1 2 2 2 2 3 3 2 3 4 4 4 3 3 2 4 4 3 3 4 2 2 2 2 2 2 2 2 2 1 1 1 1 1 1 1 2 2 2 1
2 2 2 2 2 2 2 2 2 2 2 2 3 3 3 3 3 3 4 4 4 4 2 2 1 3 3 2 1 2 2 2 2 1 1 1 1 1 1 1 1 2 1 1
1 2 2 2 2 2 2 2 2 2 3 3 3 3 4 3 2 2 3 3 2 3 2 1 3 3 2 1 1 2 2 2 1 1 1 1 1 1 1 1 1 1 1 1
1 1 2 1 1 1 2 3 2 2 2 3 3 3 3 2 2 2 3 3 3 3 1 2 4 3 2 1 1 1 1 1 1 1 1 1 1 1 1 1 1 1 1 2
1 1 1 1 2 2 2 2 1 1 1 1 2 2 2 2 2 2 2 2 2 2 1 2 3 2 1 1 1 1 1 1 1 1 1 1 1 1 1 1 1 1 2 2
1 1 2 2 2 2 2 1 1 1 1 1 2 1 1 1 1 1 1 1 1 2 1 1 0 0 1 1 1 1 1 1 1 1 1 1 1 1 1 1 2 2 2 2
1 1 1 1 1 1 1 1 2 2 2 2 2 2 1 1 0 0 0 0 1 1 1 0 0 0 1 1 1 1 1 1 1 1 1 1 1 1 1 2 2 2 2 2
Wind_Direction
255 260 239 240 236 220 217 218 225 245 246 261 264 268 273 266 266 274 272 261 268 278 286 291 292 296 299 290 277 242 185 215 246 254 256 258 264 261 257 247 249 247 246 246
276 262 254 262 246 227 229 230 242 262 269 258 260 261 260 254 251 258 260 259 265 271 277 279 274 275 283 285 280 235 238 260 270 267 265 262 267 268 268 261 261 255 252 248
270 304 321 268 235 208 214 214 209 234 249 254 254 256 250 246 238 240 252 261 264 263 263 267 269 263 261 271 274 244 261 278 271 260 266 272 275 274 269 264 259 256 259 254
270 349 247 250 212 198 219 240 226 243 261 252 244 263 259 233 223 241 249 251 257 262 268 271 266 270 279 294 294 276 274 278 277 271 270 273 271 273 271 258 255 255 260 258
192 251 275 290 242 184 203 266 233 234 254 262 262 333 297 243 217 229 243 250 249 249 258 263 258 249 241 291 285 280 278 276 273 273 269 264 267 269 265 254 256 257 259 254
178 222 249 257 245 190 121 286 257 218 236 235 116 285 271 274 268 267 274 270 255 259 262 258 259 200 169 251 270 274 276 279 281 273 265 263 264 264 262 249 253 256 260 253
202 232 262 255 220 129 170 252 262 207 216 193 200 222 253 303 302 286 288 288 270 258 262 258 243 175 205 252 267 275 283 286 289 283 271 267 273 267 261 257 257 255 260 261
179 213 252 212 147 186 220 247 233 211 212 211 228 252 270 281 290 303 308 308 293 283 292 288 240 181 230 263 276 292 292 293 292 287 280 280 269 274 263 250 253 259 264 271
195 215 240 189 203 223 215 231 235 219 223 203 228 253 269 276 277 285 284 285 290 259 297 309 292 220 236 269 284 293 298 295 297 295 287 281 263 265 261 243 246 260 258 266
242 257 249 242 248 258 241 234 239 229 222 202 222 247 265 271 276 280 281 274 281 266 278 295 301 283 254 273 279 274 287 296 296 294 292 287 271 258 249 244 243 250 257 261
246 264 280 262 236 239 239 240 245 246 222 214 210 240 244 255 263 264 279 284 270 247 259 277 290 289 283 279 265 273 283 290 294 289 286 286 277 265 257 247 247 246 247 249
228 225 209 241 240 218 215 233 233 228 248 244 208 222 238 249 253 252 262 273 272 266 263 276 284 288 290 287 250 252 276 286 286 288 288 289 294 307 298 281 284 270 265 264
229 241 225 252 266 228 219 233 229 219 220 242 250 224 226 241 250 245 253 257 256 261 265 270 277 283 286 282 256 240 255 268 275 276 283 288 291 301 314 324 321 311 295 287
230 207 245 244 251 252 229 229 218 232 240 228 234 236 232 245 251 247 251 255 258 263 266 264 267 274 279 273 254 248 254 262 264 260 266 271 275 283 290 305 319 321 323 316
237 220 227 242 250 255 224 168 171 250 265 272 244 231 232 235 246 257 261 264 269 268 266 263 266 274 277 264 253 247 249 257 254 255 260 264 272 282 287 294 299 307 317 319
239 235 221 218 232 237 218 200 210 242 250 250 255 255 250 243 249 263 265 245 245 261 265 264 266 271 265 254 255 257 251 254 260 256 259 268 268 275 282 287 293 299 303 305
181 219 218 230 236 235 229 224 217 227 241 245 250 258 256 246 262 270 272 263 252 258 262 259 264 271 261 246 242 255 258 257 263 271 256 254 258 264 272 277 284 292 296 306
213 215 210 209 215 224 237 237 229 231 239 243 244 240 233 231 245 258 267 276 278 279 270 258 259 261 253 244 236 240 241 237 232 237 250 256 266 269 274 277 283 291 303 315
219 215 215 212 207 206 221 233 234 237 247 233 227 239 246 247 249 256 262 263 266 276 277 262 264 263 248 245 241 228 227 232 238 241 237 259 278 279 285 293 296 296 301 311
222 213 202 201 200 200 222 235 229 241 244 228 231 246 257 258 251 251 255 260 255 252 259 267 265 249 242 239 229 212 214 220 228 242 238 233 248 268 277 283 291 297 300 304
232 225 204 201 226 235 223 216 215 235 247 230 227 239 253 263 254 241 246 269 272 256 255 266 265 245 232 226 213 200 207 218 225 233 238 237 241 257 272 280 285 286 286 290
226 217 220 217 219 255 260 238 226 231 243 250 249 245 249 259 257 255 247 248 259 270 272 251 245 243 237 218 190 198 215 221 224 221 223 226 230 246 267 276 280 284 288 295
231 226 226 226 223 242 273 262 240 231 238 243 241 239 241 247 241 241 268 262 251 263 270 245 247 249 223 196 189 200 209 212 219 220 220 225 232 237 250 265 275 282 287 294
230 232 236 235 200 218 259 268 259 248 246 255 252 244 237 247 264 250 246 261 270 273 263 249 254 253 226 184 176 186 202 215 226 223 216 223 235 244 252 261 269 274 277 284
226 225 220 210 222 239 245 258 277 277 268 270 273 266 249 229 234 255 255 246 254 277 272 257 260 260 211 165 178 195 206 221 227 220 215 219 227 240 251 255 256 263 271 275
240 235 236 235 237 235 228 222 238 252 254 279 291 282 276 260 235 242 249 254 252 269 274 267 229 222 175 185 194 202 207 235 255 249 236 235 236 243 251 260 263 261 264 268
263 251 248 277 274 228 211 211 219 234 233 233 264 277 273 267 249 239 242 263 269 266 251 230 187 187 184 188 195 199 198 211 218 221 224 227 233 242 251 258 263 262 265 270